User: anonymous   Login
Location: Asheville, NC
(35.6000°N, 82.5500°W)
Time: 14:50:03
(UTC-05:00)
Language:

XW-2F - Orbit

View from above orbital plane
View from above orbital plane
View from above satellite
View from above satellite

Ground track
Ground track

The orbit data is extracted from the following two-line orbital elements,

1 40910U 15049M   18016.90663045 +.00000979 +00000-0 +54038-4 0  9991
2 40910 097.4558 023.9765 0015065 182.7838 177.3313 15.16198901128658
Epoch (UTC): 16 January 2018 21:45:32
Eccentricity: 0.0015065
inclination: 97.4558°
perigee height: 507 km
apogee height: 528 km
right ascension of ascending node: 23.9765°
argument of perigee: 182.7838°
revolutions per day: 15.16198901
mean anomaly at epoch: 177.3313°
orbit number at epoch: 12865

The dashed part of the orbit path shows where the satellite is in the earth's shadow,  

DLR